Coeur d'Alene, ID

6:33 AM PDT on October 19, 2017 (GMT -0700)
Coeur D'Alene

Weather History for KCOE - November, 2014

Change the Weather History Date:

Thursday, November 13, 2014

  Actual Average Record
Temperature  
Mean Temperature 22 °F -  
Max Temperature 30 °F 42 °F 60 °F (1999)
Min Temperature 15 °F 29 °F 10 °F (2000)
Degree Days  
Heating Degree Days 42    
Moisture  
Dew Point 6 °F    
Average Humidity 54    
Maximum Humidity 68    
Minimum Humidity 37    
Precipitation  
Precipitation 0.00 in - - ()
Sea Level Pressure  
Sea Level Pressure 30.10 in    
Wind  
Wind Speed 11 mph (NNE)    
Max Wind Speed 18 mph    
Max Gust Speed 23 mph    
Visibility 10 miles    
Events      
Averages and records for this station are not official NWS values.
T = Trace of Precipitation, MM = Missing Value Source: NWS Daily Summary

Daily Weather History Graph

Daily Weather History Graph

Search for Another Location

Airport or City:

Trip Planner

Search our weather history database for the weather conditions in past years. The results will help you decide how hot, cold, wet, or windy it might be!

Date:

Astronomy

Nov. 13, 2014 Rise Set
Actual Time 6:50 AM PST 4:12 PM PST
Civil Twilight 6:16 AM PST 4:46 PM PST
Nautical Twilight 5:39 AM PST 5:23 PM PST
Astronomical Twilight 5:02 AM PST 5:59 PM PST
Moon 10:40 PM PST (11/13) 12:06 PM PST (11/13)
Length of Visible Light 10h 29m
Length of Day
9h 22m
Waning Gibbous, 58% of the Moon is Illuminated
Nov 13
Waning Gibbous
Nov 14
Last Quarter
Nov 22
New
Nov 29
First Quarter
Dec 6
Full

Hourly Weather History & Observations

Time (PST) Temp. Windchill Dew Point Humidity Pressure Visibility Wind Dir Wind Speed Gust Speed Precip Events Conditions
12:15 AM 15.8 °F 3.4 °F 5.0 °F 62% 30.29 in 10.0 mi NE 10.4 mph - N/A   Clear
12:35 AM 15.8 °F 3.4 °F 5.0 °F 62% 30.29 in 10.0 mi NNE 10.4 mph - N/A   Clear
12:55 AM 15.8 °F 5.1 °F 5.0 °F 62% 30.28 in 10.0 mi NE 8.1 mph - N/A   Clear
1:15 AM 15.8 °F 6.1 °F 3.2 °F 58% 30.27 in 10.0 mi NE 6.9 mph - N/A   Clear
1:35 AM 15.8 °F 7.2 °F 6.8 °F 68% 30.27 in 10.0 mi NNE 5.8 mph - N/A   Clear
1:55 AM 15.8 °F 4.2 °F 3.2 °F 58% 30.26 in 10.0 mi NE 9.2 mph - N/A   Clear
2:15 AM 15.8 °F 3.4 °F 6.8 °F 68% 30.26 in 10.0 mi NNE 10.4 mph - N/A   Clear
2:35 AM 15.8 °F 3.4 °F 5.0 °F 62% 30.25 in 10.0 mi NNE 10.4 mph - N/A   Clear
2:55 AM 15.8 °F 2.7 °F 6.8 °F 68% 30.24 in 10.0 mi NNE 11.5 mph - N/A   Clear
3:15 AM 15.8 °F 3.4 °F 5.0 °F 62% 30.23 in 10.0 mi NE 10.4 mph - N/A   Clear
3:35 AM 15.8 °F 3.4 °F 3.2 °F 58% 30.22 in 10.0 mi NE 10.4 mph - N/A   Clear
3:55 AM 15.8 °F 2.1 °F 6.8 °F 68% 30.22 in 10.0 mi NNE 12.7 mph - N/A   Clear
4:15 AM 15.8 °F 4.2 °F 3.2 °F 58% 30.21 in 10.0 mi NNE 9.2 mph - N/A   Clear
4:35 AM 15.8 °F 2.1 °F 3.2 °F 58% 30.20 in 10.0 mi NNE 12.7 mph - N/A   Clear
4:55 AM 15.8 °F 2.7 °F 3.2 °F 58% 30.20 in 10.0 mi NNE 11.5 mph - N/A   Clear
5:15 AM 15.8 °F 2.1 °F 3.2 °F 58% 30.20 in 10.0 mi NNE 12.7 mph - N/A   Clear
5:35 AM 15.8 °F 3.4 °F 3.2 °F 58% 30.19 in 10.0 mi NNE 10.4 mph - N/A   Clear
5:55 AM 15.8 °F 3.4 °F 3.2 °F 58% 30.19 in 10.0 mi NNE 10.4 mph - N/A   Clear
6:15 AM 15.8 °F 6.1 °F 5.0 °F 62% 30.18 in 10.0 mi NE 6.9 mph - N/A   Clear
6:35 AM 15.8 °F 2.1 °F 3.2 °F 58% 30.18 in 10.0 mi NNE 12.7 mph - N/A   Clear
6:55 AM 15.8 °F 2.7 °F 3.2 °F 58% 30.18 in 10.0 mi NNE 11.5 mph - N/A   Clear
7:15 AM 15.8 °F 2.1 °F 3.2 °F 58% 30.18 in 10.0 mi NNE 12.7 mph - N/A   Clear
7:35 AM 15.8 °F 2.7 °F 5.0 °F 62% 30.18 in 10.0 mi NNE 11.5 mph - N/A   Clear
7:55 AM 17.6 °F 4.3 °F 5.0 °F 58% 30.17 in 10.0 mi NNE 12.7 mph - N/A   Clear
8:15 AM 17.6 °F 4.3 °F 6.8 °F 63% 30.16 in 10.0 mi NNE 12.7 mph - N/A   Clear
8:35 AM 19.4 °F 5.0 °F 6.8 °F 58% 30.15 in 10.0 mi NNE 16.1 mph - N/A   Clear
8:55 AM 19.4 °F 4.5 °F 8.6 °F 63% 30.14 in 10.0 mi NNE 17.3 mph - N/A   Clear
9:15 AM 21.2 °F 6.8 °F 6.8 °F 54% 30.13 in 10.0 mi NNE 17.3 mph - N/A   Clear
9:35 AM 24.8 °F 12.4 °F 12.2 °F 59% 30.13 in 10.0 mi NNE 15.0 mph - N/A   Clear
9:55 AM 24.8 °F 12.9 °F 6.8 °F 46% 30.12 in 10.0 mi NNE 13.8 mph - N/A   Clear
10:15 AM 26.6 °F 14.3 °F 10.4 °F 51% 30.12 in 10.0 mi NNE 16.1 mph 19.6 mph N/A   Clear
10:35 AM 26.6 °F 14.3 °F 10.4 °F 51% 30.10 in 10.0 mi NNE 16.1 mph - N/A   Clear
10:55 AM 26.6 °F 13.4 °F 8.6 °F 47% 30.09 in 10.0 mi NNE 18.4 mph 23.0 mph N/A   Clear
11:15 AM 28.4 °F 15.8 °F 8.6 °F 43% 30.08 in 10.0 mi NNE 18.4 mph 21.9 mph N/A   Clear
11:35 AM 28.4 °F 16.6 °F 8.6 °F 43% 30.07 in 10.0 mi NNE 16.1 mph 20.7 mph N/A   Clear
11:55 AM 30.2 °F 20.2 °F 8.6 °F 40% 30.06 in 10.0 mi NNE 12.7 mph - N/A   Clear
12:15 PM 30.2 °F 18.9 °F 8.6 °F 40% 30.05 in 10.0 mi NNE 16.1 mph 20.7 mph N/A   Clear
12:35 PM 30.2 °F 18.9 °F 8.6 °F 40% 30.04 in 10.0 mi NNE 16.1 mph 19.6 mph N/A   Clear
12:55 PM 30.2 °F 18.9 °F 6.8 °F 37% 30.03 in 10.0 mi North 16.1 mph - N/A   Clear
1:15 PM 30.2 °F 18.9 °F 6.8 °F 37% 30.02 in 10.0 mi NNE 16.1 mph 20.7 mph N/A   Clear
1:35 PM 30.2 °F 18.5 °F 8.6 °F 40% 30.02 in 10.0 mi NNE 17.3 mph - N/A   Clear
1:55 PM 30.2 °F 18.9 °F 6.8 °F 37% 30.02 in 10.0 mi NNE 16.1 mph - N/A   Clear
2:15 PM 30.2 °F 18.9 °F 6.8 °F 37% 30.01 in 10.0 mi North 16.1 mph - N/A   Clear
2:35 PM 30.2 °F 18.9 °F 6.8 °F 37% 30.01 in 10.0 mi North 16.1 mph - N/A   Clear
2:55 PM 30.2 °F 18.9 °F 6.8 °F 37% 30.01 in 10.0 mi North 16.1 mph - N/A   Clear
3:15 PM 30.2 °F 20.2 °F 6.8 °F 37% 30.01 in 10.0 mi NNE 12.7 mph - N/A   Clear
3:35 PM 28.4 °F 18.0 °F 6.8 °F 40% 30.01 in 10.0 mi North 12.7 mph - N/A   Clear
3:55 PM 28.4 °F 18.5 °F 5.0 °F 37% 30.00 in 10.0 mi North 11.5 mph - N/A   Clear
4:15 PM 26.6 °F 18.2 °F 5.0 °F 40% 30.00 in 10.0 mi North 8.1 mph - N/A   Clear
4:35 PM 24.8 °F 14.6 °F 5.0 °F 43% 30.00 in 10.0 mi North 10.4 mph - N/A   Clear
4:55 PM 24.8 °F 14.6 °F 6.8 °F 46% 30.00 in 10.0 mi NNE 10.4 mph - N/A   Clear
5:15 PM 24.8 °F 13.4 °F 6.8 °F 46% 30.00 in 10.0 mi NNE 12.7 mph - N/A   Clear
5:35 PM 24.8 °F 14.6 °F 6.8 °F 46% 30.00 in 10.0 mi NNE 10.4 mph - N/A   Clear
5:55 PM 24.8 °F 14.6 °F 6.8 °F 46% 29.99 in 10.0 mi NNE 10.4 mph - N/A   Clear
6:15 PM 23.0 °F 12.4 °F 6.8 °F 50% 29.99 in 10.0 mi NNE 10.4 mph - N/A   Clear
6:35 PM 21.2 °F 10.9 °F 6.8 °F 54% 29.99 in 10.0 mi NNE 9.2 mph - N/A   Clear
6:55 PM 21.2 °F 10.9 °F 5.0 °F 50% 29.99 in 10.0 mi NNE 9.2 mph - N/A   Clear
7:15 PM 21.2 °F - 6.8 °F 54% 29.99 in 10.0 mi North - - N/A   Clear
7:35 PM 19.4 °F - 5.0 °F 54% 30.00 in 10.0 mi North - - N/A   Clear
7:55 PM 19.4 °F - -2.2 °F 39% 30.00 in 10.0 mi North - - N/A   Clear
8:15 PM 19.4 °F 10.4 °F 10.4 °F 68% 30.00 in 10.0 mi ENE 6.9 mph - N/A   Clear
8:35 PM 17.6 °F 8.2 °F 6.8 °F 63% 30.01 in 10.0 mi ENE 6.9 mph - N/A   Clear
8:55 PM 17.6 °F 6.4 °F 8.6 °F 68% 30.01 in 10.0 mi NNE 9.2 mph - N/A   Clear
9:15 PM 19.4 °F 8.6 °F 8.6 °F 63% 30.01 in 10.0 mi NNE 9.2 mph - N/A   Clear
9:35 PM 17.6 °F 8.2 °F 6.8 °F 63% 30.02 in 10.0 mi ENE 6.9 mph - N/A   Clear
9:55 PM 19.4 °F 7.9 °F 8.6 °F 63% 30.01 in 10.0 mi NNE 10.4 mph - N/A   Clear
10:15 PM 19.4 °F 7.9 °F 6.8 °F 58% 30.01 in 10.0 mi NNE 10.4 mph - N/A   Clear
10:35 PM 17.6 °F 6.4 °F 6.8 °F 63% 30.01 in 10.0 mi NNE 9.2 mph - N/A   Clear
10:55 PM 19.4 °F 9.5 °F 8.6 °F 63% 30.01 in 10.0 mi NNE 8.1 mph - N/A   Clear
11:15 PM 17.6 °F 6.4 °F 6.8 °F 63% 30.01 in 10.0 mi NNE 9.2 mph - N/A   Clear
11:35 PM 17.6 °F 5.7 °F 6.8 °F 63% 30.01 in 10.0 mi NNE 10.4 mph - N/A   Clear
11:55 PM 17.6 °F 5.0 °F 6.8 °F 63% 30.01 in 10.0 mi NNE 11.5 mph - N/A   Clear